Weather History for Alexandria, MN

Change the Weather History Date:

Saturday, October 6, 2012

  Actual Average Record
Temperature  
Mean Temperature 35 °F -  
Max Temperature 43 °F 58 °F 86 °F (1993)
Min Temperature 27 °F 37 °F 21 °F (2001)
Degree Days  
Heating Degree Days 30    
Moisture  
Dew Point 25 °F    
Average Humidity 69    
Maximum Humidity 89    
Minimum Humidity 42    
Precipitation  
Precipitation 0.00 in - - ()
Sea Level Pressure  
Sea Level Pressure 30.29 in    
Wind  
Wind Speed 11 mph (NNW)    
Max Wind Speed 14 mph    
Max Gust Speed 20 mph    
Visibility 10 miles    
Events      
Averages and records for this station are not official NWS values.
T = Trace of Precipitation, MM = Missing Value Source: NWS Daily Summary

Daily Weather History Graph

Daily Weather History Graph

Search for Another Location

Airport:

Trip Planner

Search our weather history database for the weather conditions in past years. The results will help you decide how hot, cold, wet, or windy it might be!

Date:

Astronomy

Oct. 06, 2012 Rise Set
Actual Time 7:27 AM CDT 6:51 PM CDT
Civil Twilight 6:57 AM CDT 7:20 PM CDT
Nautical Twilight 6:22 AM CDT 7:55 PM CDT
Astronomical Twilight 5:47 AM CDT 8:30 PM CDT
Moon 10:53 PM CDT (10/6) 1:36 PM CDT (10/6)
Length of Visible Light 12h 23m
Length of Day
11h 24m
Waning Gibbous, 65% of the Moon is Illuminated
Oct 6
Waning Gibbous
Oct 8
Last Quarter
Oct 15
New
Oct 21
First Quarter
Oct 29
Full

Hourly Weather History & Observations

Time (CDT) Temp. Windchill Dew Point Humidity Pressure Visibility Wind Dir Wind Speed Gust Speed Precip Events Conditions
12:20 AM 33.8 °F 25.3 °F 28.4 °F 81% 30.20 in 10.0 mi NW 11.5 mph - N/A   Overcast
12:29 AM 33.8 °F 24.8 °F 28.4 °F 81% 30.20 in 10.0 mi NW 12.7 mph - N/A   Overcast
12:53 AM 33.1 °F 23.4 °F 30.0 °F 89% 30.25 in 7.0 mi NNW 13.8 mph - N/A   Overcast
1:10 AM 33.8 °F 24.3 °F 30.2 °F 87% 30.20 in 10.0 mi NW 13.8 mph - N/A   Overcast
1:19 AM 33.8 °F 24.8 °F 30.2 °F 87% 30.20 in 10.0 mi NW 12.7 mph - N/A   Overcast
1:46 AM 33.8 °F 25.8 °F 30.2 °F 87% 30.21 in 10.0 mi NW 10.4 mph - N/A   Overcast
1:53 AM 33.1 °F 23.4 °F 30.0 °F 89% 30.26 in 10.0 mi NW 13.8 mph - N/A   Overcast
2:53 AM 34.0 °F 26.0 °F 28.9 °F 82% 30.26 in 10.0 mi NNW 10.4 mph - N/A   Overcast
3:53 AM 34.0 °F 25.0 °F 28.9 °F 82% 30.27 in 10.0 mi NNW 12.7 mph - N/A   Overcast
4:53 AM 34.0 °F 24.6 °F 27.0 °F 75% 30.28 in 10.0 mi NNW 13.8 mph - N/A   Overcast
5:53 AM 34.0 °F 24.6 °F 27.0 °F 75% 30.29 in 10.0 mi NNW 13.8 mph - N/A   Overcast
6:53 AM 33.1 °F 23.9 °F 26.1 °F 75% 30.31 in 10.0 mi NNW 12.7 mph - N/A   Overcast
7:20 AM 33.8 °F 26.4 °F 26.6 °F 75% 30.27 in 10.0 mi NNW 9.2 mph - N/A   Overcast
7:53 AM 33.1 °F 26.1 °F 26.1 °F 75% 30.33 in 10.0 mi NNW 8.1 mph - N/A   Overcast
8:53 AM 34.0 °F 25.0 °F 27.0 °F 75% 30.35 in 10.0 mi NNW 12.7 mph - N/A   Overcast
9:07 AM 33.8 °F 24.3 °F 24.8 °F 70% 30.30 in 10.0 mi North 13.8 mph 19.6 mph N/A   Overcast
9:38 AM 35.6 °F 28.6 °F 24.8 °F 65% 30.32 in 10.0 mi NNW 9.2 mph - N/A   Overcast
9:53 AM 35.1 °F 28.6 °F 25.0 °F 67% 30.37 in 10.0 mi North 8.1 mph - N/A   Overcast
10:19 AM 35.6 °F 27.1 °F 23.0 °F 60% 30.32 in 10.0 mi North 12.7 mph - N/A   Overcast
10:53 AM 36.0 °F 29.6 °F 23.0 °F 59% 30.38 in 10.0 mi North 8.1 mph - N/A   Overcast
11:05 AM 35.6 °F 27.5 °F 21.2 °F 56% 30.33 in 10.0 mi North 11.5 mph - N/A   Overcast
11:53 AM 37.9 °F 30.0 °F 21.9 °F 53% 30.38 in 10.0 mi NNW 12.7 mph - N/A   Overcast
12:53 PM 39.9 °F 32.9 °F 21.0 °F 47% 30.37 in 10.0 mi NNW 11.5 mph 17.3 mph N/A   Mostly Cloudy
1:53 PM 42.1 °F 36.1 °F 21.9 °F 45% 30.35 in 10.0 mi North 10.4 mph - N/A   Mostly Cloudy
2:53 PM 42.1 °F 37.1 °F 21.9 °F 45% 30.33 in 10.0 mi NW 8.1 mph - N/A   Mostly Cloudy
3:53 PM 43.0 °F 40.3 °F 21.0 °F 42% 30.31 in 10.0 mi NNW 4.6 mph - N/A   Mostly Cloudy
4:53 PM 42.1 °F 36.6 °F 21.0 °F 43% 30.30 in 10.0 mi NNW 9.2 mph - N/A   Partly Cloudy
6:53 PM 37.9 °F 31.5 °F 21.0 °F 51% 30.30 in 10.0 mi NNW 9.2 mph - N/A   Clear
7:53 PM 35.1 °F 31.0 °F 23.0 °F 61% 30.31 in 10.0 mi NW 4.6 mph - N/A   Clear
8:53 PM 34.0 °F 31.0 °F 23.0 °F 64% 30.30 in 10.0 mi West 3.5 mph - N/A   Clear
9:53 PM 28.9 °F 25.2 °F 21.9 °F 75% 30.30 in 10.0 mi WSW 3.5 mph - N/A   Clear
10:53 PM 27.0 °F 20.5 °F 21.0 °F 78% 30.29 in 10.0 mi SW 5.8 mph - N/A   Clear
11:53 PM 28.9 °F 22.8 °F 21.0 °F 72% 30.27 in 10.0 mi SSW 5.8 mph - N/A   Clear